Stations météo

réclame
Mon MeteoGroup
Tyndrum, Grande-Bretagne (99020): Température de l'air & dewpoint: 12.06.2019 11:00:00 - 18.06.2019 11:00:00 (BST)Tyndrum, Grande-Bretagne (99020): Quantités de précipitations: 12.06.2019 11:00:00 - 18.06.2019 11:00:00 (BST)
Date & Time tt [°C] td [°C] rr [mm]
18.06.2019 11:00:00 10,8 8,9 0,6
18.06.2019 10:00:00 10,2 8,8 1,4
18.06.2019 09:00:00 10,3 8,6 3,0
18.06.2019 08:00:00 10,1 7,7 0,4
18.06.2019 07:00:00 11,1 6,2 0,0
18.06.2019 06:00:00 10,5 8,2 0,4
18.06.2019 05:00:00 10,6 7,4 0,0
18.06.2019 04:00:00 10,4 8,2 0,0
18.06.2019 03:00:00 9,8 8,2 0,0
18.06.2019 02:00:00 10,1 8,6 0,0
18.06.2019 01:00:00 10,1 8,2 0,0
18.06.2019 00:00:00 10,2 7,3 0,0
17.06.2019 23:00:00 10,0 7,9 0,0
17.06.2019 22:00:00 11,1 8,2 0,0
17.06.2019 21:00:00 12,1 7,7 0,0
17.06.2019 20:00:00 13,0 7,2 0,0
17.06.2019 19:00:00 13,4 7,0 0,0
17.06.2019 18:00:00 13,5 7,5 0,0
17.06.2019 17:00:00 11,8 8,4 0,6
17.06.2019 16:00:00 11,5 10,1 3,2
17.06.2019 15:00:00 11,6 9,0 1,8
17.06.2019 14:00:00 11,6 9,7 2,4
17.06.2019 13:00:00 13,0 9,6 0,0
17.06.2019 12:00:00 12,1 9,2 1,0
17.06.2019 11:00:00 11,1 9,4 2,8
17.06.2019 10:00:00 11,4 9,1 0,2
17.06.2019 09:00:00 10,4 8,9 0,4
17.06.2019 08:00:00 10,4 8,3 0,0
17.06.2019 07:00:00 10,3 7,5 0,0
17.06.2019 06:00:00 10,2 7,6 0,0
17.06.2019 05:00:00 10,5 8,5 0,0
17.06.2019 04:00:00 9,5 9,1 2,8
17.06.2019 03:00:00 9,6 9,0 0,8
17.06.2019 02:00:00 9,7 8,7 3,4
17.06.2019 01:00:00 9,7 8,9 7,2
17.06.2019 00:00:00 9,9 9,4 1,6
16.06.2019 23:00:00 10,1 9,6 0,8
16.06.2019 22:00:00 10,5 9,6 0,4
16.06.2019 21:00:00 10,8 9,2 1,2
16.06.2019 20:00:00 13,0 6,7 0,0
16.06.2019 19:00:00 14,0 6,8 0,0
16.06.2019 18:00:00 14,5 6,9 0,0
16.06.2019 17:00:00 15,9 7,8 0,0
16.06.2019 16:00:00 14,8 6,0 0,0
16.06.2019 15:00:00 14,8 7,8 0,0
16.06.2019 14:00:00 12,3 5,8 0,0
16.06.2019 13:00:00 14,1 8,6 0,0
16.06.2019 12:00:00 12,0 7,9 0,2
16.06.2019 11:00:00 10,2 7,9 0,2
16.06.2019 10:00:00 11,9 9,5 0,0
16.06.2019 09:00:00 10,1 8,4 0,4
16.06.2019 08:00:00 10,0 8,4 0,0
16.06.2019 07:00:00 9,4 8,1 0,0
16.06.2019 06:00:00 9,3 8,7 0,0
16.06.2019 05:00:00 8,4 7,9 0,0
16.06.2019 04:00:00 8,6 7,7 0,0
16.06.2019 03:00:00 9,4 8,1 0,4
16.06.2019 02:00:00 9,5 8,3 0,4
16.06.2019 01:00:00 9,8 8,6 0,4
16.06.2019 00:00:00 10,5 8,6 0,0
15.06.2019 23:00:00 11,2 8,3 0,0
15.06.2019 22:00:00 11,5 8,3 0,0
15.06.2019 21:00:00 12,1 8,1 0,0
15.06.2019 20:00:00 14,1 7,7 0,0
15.06.2019 19:00:00 14,6 6,3 0,0
15.06.2019 18:00:00 14,4 10,9 0,4
15.06.2019 17:00:00 16,7 9,8 0,0
15.06.2019 16:00:00 13,6 10,3 0,4
15.06.2019 15:00:00 13,3 11,1 0,4
15.06.2019 14:00:00 13,2 9,5 0,0
15.06.2019 13:00:00 13,9 8,7 0,0
15.06.2019 12:00:00 13,4 9,7 0,0
15.06.2019 11:00:00 12,2 10,4 0,0
15.06.2019 10:00:00 11,7 10,3 0,4
15.06.2019 09:00:00 10,5 9,6 0,4
15.06.2019 08:00:00 10,2 9,7 0,4
15.06.2019 07:00:00 9,7 9,3 0,4
15.06.2019 06:00:00 9,3 8,7 0,8
15.06.2019 05:00:00 9,2 8,2 2,0
15.06.2019 04:00:00 9,9 7,9 0,6
15.06.2019 03:00:00 9,0 8,1 0,2
15.06.2019 02:00:00 9,3 7,8 0,4
15.06.2019 01:00:00 10,4 7,3 0,0
15.06.2019 00:00:00 9,8 7,6 0,2
14.06.2019 23:00:00 10,0 7,5 0,0
14.06.2019 22:00:00 11,2 6,4 0,0
14.06.2019 21:00:00 11,4 6,4 0,0
14.06.2019 20:00:00 12,2 5,4 0,0
14.06.2019 19:00:00 13,1 5,4 0,0
14.06.2019 18:00:00 14,0 2,9 0,0
14.06.2019 17:00:00 13,6 1,9 0,0
14.06.2019 16:00:00 13,9 2,5 0,0
14.06.2019 15:00:00 13,8 3,6 0,0
14.06.2019 14:00:00 12,1 4,0 0,0
14.06.2019 13:00:00 12,0 5,2 0,0
14.06.2019 12:00:00 9,7 7,1 0,2
14.06.2019 11:00:00 10,7 5,3 0,0
14.06.2019 10:00:00 10,0 6,4 0,0
14.06.2019 09:00:00 8,4 6,7 0,6
14.06.2019 08:00:00 7,8 6,3 0,6
14.06.2019 07:00:00 8,3 7,4 0,0
14.06.2019 06:00:00 7,4 6,9 0,0
14.06.2019 05:00:00 7,1 6,7 0,2
14.06.2019 04:00:00 7,1 6,5 0,6
14.06.2019 03:00:00 6,7 5,9 0,2
14.06.2019 02:00:00 6,3 5,5 0,0
14.06.2019 01:00:00 6,0 4,6 0,0
14.06.2019 00:00:00 6,8 5,0 0,0
13.06.2019 23:00:00 7,3 4,9 0,0
13.06.2019 22:00:00 8,2 4,1 0,0
13.06.2019 21:00:00 10,2 4,3 0,0
13.06.2019 20:00:00 11,5 4,3 0,0
13.06.2019 19:00:00 12,7 3,7 0,0
13.06.2019 18:00:00 13,4 4,6 0,0
13.06.2019 17:00:00 13,3 5,6 0,0
13.06.2019 16:00:00 12,3 4,8 0,0
13.06.2019 15:00:00 13,2 3,9 0,0
13.06.2019 14:00:00 13,4 4,3 0,0
13.06.2019 13:00:00 12,3 4,9 0,0
13.06.2019 12:00:00 12,2 4,2 0,0
13.06.2019 11:00:00 11,4 4,4 0,0
13.06.2019 10:00:00 10,8 5,0 0,0
13.06.2019 09:00:00 9,0 3,3 0,0
13.06.2019 08:00:00 8,8 3,2 0,0
13.06.2019 07:00:00 8,2 3,1 0,0
13.06.2019 06:00:00 7,4 3,7 0,0
13.06.2019 05:00:00 7,8 4,0 0,0
13.06.2019 04:00:00 8,5 4,6 0,0
13.06.2019 03:00:00 8,9 5,0 0,0
13.06.2019 02:00:00 8,9 5,1 0,0
13.06.2019 01:00:00 9,2 5,4 0,0
13.06.2019 00:00:00 9,8 5,6 0,0
12.06.2019 23:00:00 10,1 5,8 0,0
12.06.2019 22:00:00 10,2 6,2 0,0
12.06.2019 21:00:00 9,8 7,2 0,2
12.06.2019 20:00:00 9,8 7,1 0,4
12.06.2019 19:00:00 9,9 8,0 0,8
12.06.2019 18:00:00 10,1 7,6 0,8
12.06.2019 17:00:00 10,3 7,5 0,2
12.06.2019 16:00:00 11,3 6,4 0,0
12.06.2019 15:00:00 11,4 5,9 0,0
12.06.2019 14:00:00 11,6 6,2 0,0
12.06.2019 13:00:00 12,7 6,2 0,0
12.06.2019 12:00:00 11,9 6,0 0,0
12.06.2019 11:00:00 11,7 5,6 0,0

tt = Température de l'air
td = dewpoint
rr = Quantités de précipitations

stations d'obs. à proximité